Location: ??????????
(54.7560°N, 39.1389°E)
Time: 10:42:07
(UTC+00:00)

Cosmos 1733 Rocket - Pass Details

Date: 19 May 2025
Orbit: 598 x 620 km, 82.5° (Epoch: 13 June)

Event Time Altitude Azimuth Distance (km) Brightness Sun altitude
Rises 23:31:31 0° 347° (NNW) 2,910 7.3 -10.2°
Reaches altitude 10° 23:33:46 10° 345° (NNW) 2,001 6.3 -10.0°
Maximum altitude 23:38:11 73° 262° (W) 654 3.1 -9.6°
Drops below altitude 10° 23:42:34 10° 178° (S) 1,987 5.2 -9.3°
Enters shadow 23:43:20 - 177° (S) 2,294 5.5 -9.2°
